Вернуться в каталог

DELTA 1 DEB

АктивенUNKNOWN
NORAD 40752·DEBRIS·🇺🇸 United States

Запущен Jul 29, 1976 с Vandenberg Space Force Base

Loading…

Ближайшие Пролёты (ближайшие 24 часа)

TLE

СвежийSource: Space-Track

Эпоха: Sep 14, 2026, 03:17 UTC

1 40752U 76077FV  26257.13744225 -.00000002  00000-0  58825-3 0  9999
2 40752 102.2204 315.4170 0564276 347.9515  33.9283 11.37645304532110

Отслеживайте DELTA 1 DEB в реальном времени с AllMySat

Download on the App Store